Location: Izdebno
(52.6670°N, 16.2170°E)
Time: 11:35:11
(UTC+01:00)

Transit 4A - All Passes

Search period start: 31 January 2023 00:00
Search period end: 10 February 2023 00:00
Orbit: 871 x 973 km, 66.8° (Epoch: 30 January)

Date Brightness Start Highest point End Pass type
(mag) Time Alt. Az. Time Alt. Az. Time Alt. Az.
31 Jan - 01:19:24 10° NW 01:24:54 38° NE 01:30:29 10° ESE night (unlit)
31 Jan - 03:05:45 10° NW 03:11:39 67° WSW 03:17:39 10° SSE night (unlit)
31 Jan - 04:53:48 10° WNW 04:56:59 15° WSW 05:00:11 10° SW night (unlit)
31 Jan - 18:18:23 10° SSW 18:23:57 49° ESE 18:29:34 10° NE visible
31 Jan - 20:04:49 10° WSW 20:10:24 46° NW 20:16:03 10° NE visible
31 Jan - 21:53:40 10° WNW 21:58:11 22° NNW 22:02:45 10° NE visible
31 Jan - 23:41:59 10° NW 23:46:34 23° NNE 23:51:12 10° ENE night (unlit)
01 Feb - 01:28:37 10° NW 01:34:20 47° NE 01:40:08 10° ESE night (unlit)
01 Feb - 03:15:04 10° NW 03:20:46 50° WSW 03:26:36 10° SSE night (unlit)
01 Feb - 16:44:50 10° SE 16:47:48 14° ESE 16:50:45 10° ENE daylight
01 Feb - 18:27:19 10° SSW 18:33:04 68° SE 18:38:53 10° NE visible
01 Feb - 20:14:27 10° W 20:19:50 37° NNW 20:25:16 10° NE visible
01 Feb - 22:03:28 10° NW 22:07:50 21° N 22:12:15 10° NE visible
01 Feb - 23:51:22 10° NW 23:56:11 25° NNE 00:01:04 10° ENE night (unlit)
02 Feb - 01:37:49 10° NW 01:43:41 60° NE 01:49:40 10° SE night (unlit)
02 Feb - 03:24:28 10° NW 03:29:50 36° WSW 03:35:19 10° S night (unlit)
02 Feb - 16:52:29 10° SSE 16:56:40 21° ESE 17:00:51 10° ENE daylight
02 Feb - 18:36:26 10° SW 18:42:15 90° SSE 18:48:09 10° NE visible
02 Feb - 20:24:11 10° W 20:29:20 31° NNW 20:34:32 10° NE visible
02 Feb - 22:13:12 10° NW 22:17:30 20° N 22:21:51 10° NE visible
03 Feb - 00:00:41 10° NW 00:05:46 29° NNE 00:10:55 10° E night (unlit)
03 Feb - 01:47:03 10° NW 01:52:59 78° NE 01:59:04 10° SE night (unlit)
03 Feb - 03:33:59 10° NW 03:38:50 26° WSW 03:43:45 10° SSW night (unlit)
03 Feb - 17:00:42 10° S 17:05:36 29° ESE 17:10:32 10° NE daylight
03 Feb - 18:45:42 10° SW 18:51:31 70° NW 18:57:23 10° NE visible
03 Feb - 20:33:59 10° W 20:38:52 27° NNW 20:43:49 10° NE visible
03 Feb - 22:22:50 10° NW 22:27:11 21° N 22:31:34 10° NE visible
04 Feb - 00:09:56 10° NW 00:15:17 34° NNE 00:20:43 10° E night (unlit)
04 Feb - 01:56:16 10° NW 02:02:14 81° SW 02:08:19 10° SSE night (unlit)
04 Feb - 03:43:45 10° WNW 03:47:46 19° WSW 03:51:50 10° SSW night (unlit)
04 Feb - 17:09:14 10° S 17:14:37 40° ESE 17:20:01 10° NE daylight
04 Feb - 18:55:09 10° WSW 19:00:50 54° NW 19:06:36 10° NE visible
04 Feb - 20:43:49 10° WNW 20:48:28 24° NNW 20:53:11 10° NE visible
04 Feb - 22:32:22 10° NW 22:36:50 22° N 22:41:22 10° ENE visible
05 Feb - 00:19:10 10° NW 00:24:45 41° NE 00:30:26 10° ESE night (unlit)
05 Feb - 02:05:33 10° NW 02:11:24 61° WSW 02:17:22 10° SSE night (unlit)
05 Feb - 03:54:02 10° WNW 03:56:37 13° WSW 03:59:14 10° SW night (unlit)
05 Feb - 15:37:16 10° ESE 15:38:37 11° E 15:39:59 10° E daylight
05 Feb - 17:18:01 10° SSW 17:23:41 55° ESE 17:29:23 10° NE visible
05 Feb - 19:04:42 10° WSW 19:10:14 43° NW 19:15:50 10° NE visible
05 Feb - 20:53:38 10° WNW 20:58:06 22° N 21:02:37 10° NE visible
05 Feb - 22:41:48 10° NW 22:46:29 23° NNE 22:51:12 10° ENE visible
06 Feb - 00:28:23 10° NW 00:34:09 51° NE 00:40:03 10° ESE night (unlit)
06 Feb - 02:14:53 10° NW 02:20:30 45° WSW 02:26:15 10° S night (unlit)
06 Feb - 15:43:59 10° SE 15:47:26 16° ESE 15:50:53 10° ENE daylight
06 Feb - 17:27:02 10° SSW 17:32:49 75° SE 17:38:40 10° NE visible
06 Feb - 19:14:23 10° W 19:19:41 35° NNW 19:25:04 10° NE visible
06 Feb - 21:03:25 10° NW 21:07:46 21° N 21:12:09 10° NE visible
06 Feb - 22:51:10 10° NW 22:56:05 26° NNE 23:01:05 10° ENE visible
07 Feb - 00:37:35 10° NW 00:43:30 66° NE 00:49:32 10° SE night (unlit)
07 Feb - 02:24:18 10° NW 02:29:33 33° WSW 02:34:53 10° S night (unlit)
07 Feb - 15:51:53 10° SSE 15:56:20 23° ESE 16:00:48 10° ENE daylight
07 Feb - 17:36:12 10° SW 17:42:02 83° NW 17:47:56 10° NE visible
07 Feb - 19:24:08 10° W 19:29:12 29° NNW 19:34:20 10° NE visible
07 Feb - 21:13:07 10° NW 21:17:26 21° N 21:21:48 10° NE visible
07 Feb - 23:00:27 10° NW 23:05:38 30° NNE 23:10:55 10° E visible
08 Feb - 00:46:49 10° NW 00:52:47 85° NE 00:58:53 10° SE night (unlit)
08 Feb - 02:33:54 10° WNW 02:38:31 24° WSW 02:43:13 10° SSW night (unlit)
08 Feb - 16:00:13 10° S 16:05:17 32° ESE 16:10:24 10° NE daylight
08 Feb - 17:45:32 10° SW 17:51:18 64° NW 17:57:10 10° NE visible
08 Feb - 19:33:57 10° WNW 19:38:46 26° NNW 19:43:39 10° NE visible
08 Feb - 21:22:43 10° NW 21:27:06 21° N 21:31:33 10° NE visible
08 Feb - 23:09:42 10° NW 23:15:09 36° NNE 23:20:41 10° E visible
09 Feb - 00:56:03 10° NW 01:02:00 74° SW 01:08:04 10° SSE night (unlit)
09 Feb - 02:43:46 10° WNW 02:47:25 17° WSW 02:51:08 10° SW night (unlit)
09 Feb - 16:08:50 10° S 16:14:19 45° ESE 16:19:51 10° NE daylight
09 Feb - 17:55:01 10° WSW 18:00:39 50° NW 18:06:23 10° NE visible
09 Feb - 19:43:47 10° WNW 19:48:22 23° NNW 19:53:01 10° NE visible
09 Feb - 21:32:13 10° NW 21:36:45 22° NNE 21:41:22 10° ENE visible
09 Feb - 23:18:56 10° NW 23:24:36 44° NE 23:30:22 10° ESE visible
